Regional Weather Roundup
Issued by NWS

Home | Current Version | Previous Version | Text Only | Print | Product List | Glossary On
Versions: 1 2 3 4 5 6 7 8 9 10 11 12 13 14 15 16 17 18 19 20 21 22 23 24 25 26 27 28
000
ASUS45 KCYS 201610
RWRWY

WYOMING REGIONAL WEATHER ROUNDUP
NATIONAL WEATHER SERVICE CHEYENNE WY
1000 AM MDT SUN APR 20 2014

NOTE:  "FAIR" INDICATES FEW OR NO CLOUDS BELOW 12,000 FEET
WITH NO SIGNIFICANT WEATHER AND/OR OBSTRUCTIONS TO VISIBILITY.

WYZ001-201700-
YELLOWSTONE NATIONAL PARK

CITY           SKY/WX    TMP DP  RH WIND       PRES   REMARKS
LK YELLOWSTONE   N/A     43  26  51 MISG      30.17R
W YELLOWSTONE  NOT AVBL

$$
WYZ002>013-054>058-071-098>099-201700-
NORTHERN WYOMING

CITY           SKY/WX    TMP DP  RH WIND       PRES   REMARKS
JACKSON        SUNNY     45  32  61 N9        30.14R
CODY           PTSUNNY   50  27  40 N9        30.05R
GREYBULL       CLOUDY    50  30  46 NW6       30.00R
WORLAND        CLOUDY    51  31  46 CALM      29.99R
SHERIDAN         N/A     54  28  37 W7          N/A
BUFFALO        CLOUDY    53  28  38 N21G36    30.03R
GILLETTE       MOSUNNY   65  34  31 CALM      29.97R
HULETT         FAIR      61  41  48 W7        29.96
NEWCASTLE      FAIR      55  36  47 CALM      29.98

$$
WYZ014>020-022>026-101>103-201700-
CENTRAL WYOMING

CITY           SKY/WX    TMP DP  RH WIND       PRES   REMARKS
BIG PINEY      SUNNY     51  27  39 E6        30.18S
PINEDALE       MOSUNNY   46  30  53 CALM      30.19R
DUBOIS         FAIR      52  23  32 W13       30.10S
LANDER         CLOUDY    53  31  42 CALM      30.05S
RIVERTON       CLOUDY    52  25  35 NW5       30.07R
CASPER         MOSUNNY   61  32  33 SW15      30.05R
DOUGLAS        SUNNY     64  33  31 W16       30.02S

$$
WYZ021-027>030-104>119-201700-
SOUTHERN WYOMING

CITY           SKY/WX    TMP DP  RH WIND       PRES   REMARKS
EVANSTON       MOSUNNY   53  33  46 SW6       30.20R
KEMMERER       MOSUNNY   50  32  50 NW12      30.20S
FORT BRIDGER   FAIR      58  34  41 W16G22    30.21R
ROCK SPRINGS   MOSUNNY   57  30  35 W9        30.17R
DIXON          FAIR      55  39  56 W3        30.20S
RAWLINS        SUNNY     57  30  35 W16       30.14R
SARATOGA       FAIR      55  32  41 W5        30.17S
LARAMIE        MOSUNNY   54  34  46 SW10      30.15R
CHEYENNE       SUNNY     62  33  33 NW15G25   30.09S
TORRINGTON     SUNNY     60  43  53 NW3       30.00S
PINE BLUFFS    FAIR      63  37  39 CALM      30.07S

$$



USA.gov is the U.S. government's official web portal to all federal, state and local government web resources and services.